{"data":{"norad_id":47352,"epoch":"2026-09-19T15:34:59.151072Z","epoch_age_seconds":95386,"freshness":"FRESH","line1":"1 47352U 21005D   26262.64929573 -.00000305  00000+0  19405-5 0  9994","line2":"2 47352  53.1591 230.0727 0001220  90.5330 269.5812 15.31697513312890","mean_motion":15.31697513,"eccentricity":0.000122,"inclination_deg":53.1591,"raan_deg":230.0727,"arg_perigee_deg":90.533,"mean_anomaly_deg":269.5812,"bstar":1.9405e-6,"rev_number":31289,"period_min":94.013340609243,"perigee_km":469.91184495539,"apogee_km":471.58297275115,"semimajor_km":6848.8844088533,"source":"CELESTRAK","updated_at":"2026-09-20T09:00:38.588755Z"}}